Printer-friendly version

IAU Minor Planet Center

Minor Planet Center

MPEC 2008-O44 : COMET 51P/HARRINGTON

The following Minor Planet Electronic Circular may be linked-to from your own Web pages, but must not otherwise be redistributed electronically.


Read MPEC 2008-O43 Read MPEC 2008-O45


M.P.E.C. 2008-O44                                Issued 2008 July 29, 17:34 UT

     The Minor Planet Electronic Circulars contain information on unusual
         minor planets and routine data on comets.  They are published
   on behalf of Commission 20 of the International Astronomical Union by the
          Minor Planet Center, Smithsonian Astrophysical Observatory,
                          Cambridge, MA 02138, U.S.A.

             Prepared using the Tamkin Foundation Computer Network

                              MPC@CFA.HARVARD.EDU
          URL http://www.cfa.harvard.edu/iau/mpc.html  ISSN 1523-6714

                             COMET 51P/HARRINGTON

Observations:
0051P         C2008 07 28.43016 03 15 09.54 +12 37 52.3          15.8 T EO044703
0051P         C2008 07 28.43561 03 15 10.25 +12 37 55.8          15.8 T EO044703
0051P         C2008 07 28.44096 03 15 10.93 +12 37 58.2          15.8 T EO044703
0051P         C2008 07 28.44637 03 15 11.71 +12 38 00.8          15.8 T EO044703
0051P         C2008 07 29.06008 03 16 31.19 +12 43 04.9          14.8 T EO044246
0051P         C2008 07 29.06072 03 16 31.28 +12 43 05.4                 EO044246
0051P         C2008 07 29.06137 03 16 31.36 +12 43 05.8                 EO044246
0051P         C2008 07 29.06212 03 16 31.46 +12 43 06.3                 EO044246
0051P         C2008 07 29.06292 03 16 31.55 +12 43 06.5                 EO044246
0051P         C2008 07 29.06370 03 16 31.65 +12 43 06.9                 EO044246
0051P         C2008 07 29.06449 03 16 31.75 +12 43 07.2                 EO044246
0051P         C2008 07 29.06527 03 16 31.87 +12 43 07.6                 EO044246
0051P         C2008 07 29.06604 03 16 31.97 +12 43 08.1                 EO044246
0051P         C2008 07 29.06688 03 16 32.07 +12 43 08.4                 EO044246
0051P         C2008 07 29.06779 03 16 32.19 +12 43 08.8                 EO044246
0051P         C2008 07 29.06880 03 16 32.32 +12 43 09.2                 EO044246

Observer details:
246 Klet Observatory-KLENOT.  Observer M. Tichy.  1.06-m KLENOT Telescope
    + CCD.
703 Catalina Sky Survey.  Observer R. A. Kowalski.  Measurers E. C. Beshore,
    A. Boattini, A. R. Gibbs, A. D. Grauer, R. E. Hill, R. A. Kowalski,
    S. M. Larson.  0.68-m Schmidt + CCD.

Orbital elements:
  51P/Harrington
Epoch 1994 Sept. 5.0 TT = JDT 2449600.5
T 1994 Aug. 23.23725 TT                                 MPC
q   1.5718706            (2000.0)            P               Q
n   0.14531840     Peri.  233.45716     +0.98395493     +0.12081463
a   3.5830729      Node   119.26215     -0.07228234     +0.94268682
e   0.5613065      Incl.    8.65543     -0.16311944     +0.31103921
P   6.78

Epoch 2001 June 20.0 TT = JDT 2452080.5
T 2001 June 5.74647 TT                                  MPC
q   1.5681165            (2000.0)            P               Q
n   0.14557696     Peri.  233.60207     +0.98407078     +0.11974294
a   3.5788291      Node   119.17998     -0.07119024     +0.94271183
e   0.5618353      Incl.    8.65597     -0.16290074     +0.31137763
P   6.77

Epoch 2008 June 23.0 TT = JDT 2454640.5
T 2008 June 18.43364 TT                                 MPC
q   1.6875613            (2000.0)            P               Q
n   0.13829150     Peri.  269.18979     +0.98798583     +0.12263148
a   3.7034435      Node    83.76257     -0.07449272     +0.91108849
e   0.5443264      Incl.    5.42891     -0.13540619     +0.39354706
P   7.13
From 337 observations 1994-2008, mean residual 0".9.  Nongravitational
     parameters A1 = +1.75, A2 = +0.2693.

